Location: Bemmer
(51.5498°N, 5.6249°E)
Time: 17:06:14
(UTC+00:00)

ASTEX 1 - Pass Details

Date: 03 March 2021
Orbit: 720 x 743 km, 92.7° (Epoch: 12 April)

Event Time Altitude Azimuth Distance (km) Brightness Sun altitude
Rises 19:19:04 0° 8° (N) 3,153 6.8 -18.9°
Reaches altitude 10° 19:21:24 10° 11° (NNE) 2,225 5.9 -19.3°
Maximum altitude 19:26:17 62° 93° (E) 812 3.3 -20.0°
Enters shadow 19:30:13 15° 172° (S) 1,863 5.3 -20.6°
